Total_Precipitation_Accumulation
1.34 1.24 1.71 1.62 1.42 1.39 1.33 1.32 1.24 1.13 1.03 0.91 0.81 0.72 0.66 0.63 0.63 0.65 0.62 0.53 0.51 0.51 0.47 0.52 0.60 0.52 0.51 0.51 0.52 0.56 0.62 0.65 0.58 0.51 0.53 0.54 0.53 0.61 0.77 0.93 1.09 1.13 0.96
1.04 1.20 1.82 1.78 1.58 1.45 1.36 1.34 1.24 1.04 0.89 0.81 0.73 0.65 0.59 0.58 0.62 0.60 0.53 0.49 0.47 0.45 0.45 0.56 0.62 0.61 0.60 0.64 0.68 0.74 0.78 0.71 0.61 0.57 0.72 0.77 0.70 0.73 0.81 0.95 1.25 1.20 0.91
0.92 1.07 1.48 1.89 1.73 1.49 1.35 1.31 1.24 1.08 0.81 0.70 0.65 0.61 0.54 0.50 0.50 0.50 0.48 0.44 0.45 0.44 0.45 0.53 0.61 0.58 0.60 0.68 0.76 0.78 0.79 0.75 0.66 0.74 1.21 1.76 1.33 0.95 0.86 1.00 1.09 0.99 0.85
0.86 0.98 1.18 1.69 1.62 1.45 1.37 1.25 1.30 1.12 0.84 0.71 0.66 0.61 0.53 0.48 0.51 0.58 0.58 0.49 0.46 0.45 0.42 0.48 0.59 0.55 0.55 0.63 0.66 0.65 0.69 0.72 0.75 1.03 1.63 2.09 1.84 1.29 1.12 1.05 1.01 0.93 0.85
0.83 0.96 1.38 1.71 1.46 1.31 1.23 1.22 1.31 1.18 1.00 0.85 0.73 0.63 0.58 0.53 0.54 0.62 0.57 0.55 0.54 0.50 0.49 0.56 0.61 0.58 0.52 0.50 0.51 0.53 0.65 0.87 1.06 1.17 1.51 1.77 1.89 1.54 1.27 1.09 1.04 1.00 1.01
0.81 0.93 1.20 1.40 1.31 1.23 1.20 1.17 1.18 1.20 1.18 0.97 0.80 0.73 0.72 0.68 0.67 0.69 0.68 0.62 0.62 0.61 0.63 0.63 0.60 0.60 0.56 0.54 0.52 0.57 0.73 0.97 1.14 1.25 1.52 1.66 1.68 1.44 1.20 1.10 1.14 1.24 1.27
0.68 0.79 0.94 1.17 1.12 1.08 1.08 1.11 1.07 1.14 1.20 1.06 0.83 0.82 0.84 0.76 0.76 0.78 0.80 0.70 0.69 0.67 0.68 0.69 0.63 0.61 0.59 0.59 0.59 0.66 0.75 0.82 0.91 1.18 1.51 1.76 1.52 1.30 1.22 1.10 1.13 1.35 1.48
0.76 0.75 0.79 0.98 1.04 1.00 1.02 1.10 1.01 1.03 1.12 1.07 0.95 0.88 0.81 0.80 0.83 0.84 0.80 0.76 0.71 0.71 0.72 0.74 0.73 0.66 0.63 0.63 0.64 0.72 0.77 0.75 0.72 0.90 1.11 1.56 1.73 1.54 1.24 1.07 1.12 1.24 1.41
1.14 1.02 0.82 0.76 0.79 0.85 0.99 1.12 1.08 1.04 1.04 1.00 1.04 0.98 0.94 0.91 0.85 0.80 0.78 0.78 0.78 0.79 0.80 0.76 0.72 0.69 0.67 0.66 0.64 0.70 0.78 0.78 0.79 0.84 0.89 1.36 1.71 1.63 1.25 1.06 1.06 1.31 1.42
1.16 1.10 0.93 0.83 0.80 0.81 0.77 0.94 1.14 1.19 1.13 1.03 1.01 1.00 0.99 0.93 0.84 0.78 0.73 0.74 0.81 0.83 0.88 0.88 0.80 0.77 0.73 0.68 0.67 0.74 0.80 0.72 0.66 0.68 0.85 1.18 1.63 1.67 1.46 1.09 0.93 1.00 1.12
0.95 0.94 0.91 0.90 0.92 0.98 0.98 0.96 1.18 1.26 1.18 0.99 0.89 0.93 0.94 0.79 0.82 0.83 0.72 0.86 0.87 0.93 0.97 0.97 0.91 0.88 0.77 0.69 0.75 0.85 0.73 0.59 0.70 0.69 0.86 1.15 1.49 1.59 1.52 1.22 0.91 0.85 0.93
0.78 0.74 0.71 0.73 0.80 0.91 0.99 1.33 1.53 1.33 1.21 0.95 0.94 0.83 0.89 0.96 1.03 0.86 0.80 0.96 1.00 1.05 1.03 1.02 1.06 0.97 0.79 0.62 0.67 0.74 0.62 0.62 0.66 0.62 0.80 1.17 1.41 1.48 1.40 1.25 1.00 0.88 0.91
0.60 0.54 0.52 0.49 0.51 0.59 0.80 1.14 1.43 1.55 1.52 1.43 1.19 0.96 0.97 0.85 0.74 0.68 0.70 0.80 0.88 0.96 0.93 0.96 0.97 0.82 0.72 0.67 0.61 0.56 0.61 0.62 0.70 0.74 0.93 1.21 1.37 1.47 1.42 1.28 1.10 1.01 1.00
0.58 0.55 0.48 0.46 0.42 0.44 0.53 0.70 0.90 1.04 1.14 1.16 1.01 0.91 0.98 0.87 0.76 0.76 0.76 0.76 0.75 0.85 0.96 0.98 0.94 0.82 0.72 0.62 0.58 0.60 0.64 0.64 0.77 1.00 1.16 1.09 1.22 1.43 1.49 1.39 1.25 1.14 1.10
0.65 0.68 0.60 0.49 0.45 0.44 0.48 0.56 0.63 0.78 0.87 0.90 0.92 0.88 0.91 0.92 0.89 0.86 0.78 0.78 0.71 0.78 0.89 0.96 0.92 0.84 0.80 0.72 0.69 0.75 0.79 0.82 0.85 0.96 1.03 1.01 1.15 1.43 1.64 1.65 1.45 1.26 1.20
0.68 0.69 0.69 0.59 0.55 0.50 0.48 0.51 0.55 0.65 0.74 0.78 0.76 0.76 0.86 0.94 0.94 0.90 0.85 0.87 0.83 0.84 0.96 0.96 0.88 0.93 0.92 0.85 0.72 0.72 0.79 0.85 0.90 0.91 0.93 1.04 1.09 1.16 1.51 1.74 1.75 1.53 1.45
0.66 0.64 0.63 0.64 0.64 0.62 0.60 0.59 0.57 0.64 0.74 0.76 0.73 0.68 0.70 0.78 0.84 0.87 0.87 0.87 0.91 1.00 1.05 1.07 0.92 0.95 0.91 0.83 0.78 0.72 0.71 0.73 0.78 0.84 0.81 0.82 0.89 0.99 1.24 1.60 1.83 1.74 1.62
0.53 0.52 0.55 0.56 0.61 0.68 0.71 0.72 0.73 0.73 0.80 0.77 0.76 0.69 0.64 0.69 0.77 0.90 0.91 0.88 0.91 1.04 1.13 1.16 1.07 1.04 0.98 0.94 0.91 0.84 0.75 0.76 0.74 0.81 0.82 0.75 0.88 0.83 0.98 1.15 1.38 1.57 1.64
0.44 0.44 0.46 0.50 0.52 0.64 0.73 0.76 0.84 0.86 0.87 0.85 0.84 0.74 0.71 0.77 0.84 1.01 1.11 1.12 1.12 1.13 1.13 1.08 1.13 1.13 1.11 1.10 1.02 0.97 0.86 0.79 0.84 0.79 0.81 0.83 0.79 0.83 0.92 0.79 0.86 1.00 1.30
0.34 0.36 0.40 0.45 0.48 0.55 0.70 0.82 0.97 1.09 1.05 1.07 1.01 0.89 0.91 1.05 1.19 1.32 1.33 1.40 1.47 1.36 1.32 1.25 1.26 1.22 1.16 1.19 1.08 0.97 0.89 0.80 0.89 0.93 0.91 0.91 0.87 0.81 0.90 0.84 0.78 0.71 0.86
0.23 0.26 0.32 0.36 0.44 0.53 0.61 0.75 0.96 1.24 1.35 1.44 1.40 1.22 1.16 1.28 1.52 1.73 1.69 1.74 1.78 1.66 1.63 1.66 1.86 1.81 1.54 1.30 1.33 1.16 0.98 0.83 0.94 0.99 0.96 0.98 0.99 1.05 1.10 0.99 0.86 0.82 0.70
0.17 0.18 0.24 0.32 0.42 0.51 0.60 0.77 0.94 1.08 1.08 1.26 1.41 1.39 1.30 1.29 1.44 1.58 1.83 1.93 1.86 1.88 2.01 2.02 2.35 2.50 2.06 1.63 1.62 1.74 1.47 1.26 1.00 0.86 0.92 0.94 1.03 1.22 1.23 1.03 0.93 0.85 0.78
0.12 0.13 0.17 0.24 0.35 0.48 0.64 0.87 1.09 1.27 1.36 1.42 1.35 1.43 1.44 1.37 1.41 1.51 1.67 1.82 1.84 1.91 2.01 2.12 2.45 2.91 2.67 2.13 1.89 2.08 1.78 1.58 1.39 1.05 0.90 0.92 1.02 1.23 1.33 1.25 1.16 1.08 0.93
0.11 0.10 0.14 0.23 0.38 0.59 0.80 1.06 1.31 1.51 1.55 1.44 1.48 1.51 1.39 1.34 1.31 1.37 1.51 1.65 1.78 1.80 1.94 2.04 2.15 2.62 2.94 2.62 2.32 1.98 1.65 1.57 1.67 1.49 1.13 1.04 1.08 1.16 1.24 1.19 1.18 1.26 1.17
0.17 0.19 0.26 0.46 0.71 0.96 1.17 1.43 1.72 1.72 1.61 1.51 1.51 1.48 1.42 1.43 1.40 1.39 1.54 1.61 1.63 1.68 1.79 2.12 2.37 2.62 2.81 2.75 2.64 2.46 2.20 1.91 1.57 1.68 1.62 1.35 1.22 1.14 1.17 1.22 1.23 1.26 1.27
0.48 0.62 0.82 1.09 1.27 1.36 1.49 1.64 1.76 1.73 1.74 1.68 1.50 1.40 1.40 1.44 1.49 1.54 1.60 1.60 1.58 1.61 1.72 1.94 2.22 2.43 2.74 2.90 2.79 2.57 2.42 2.29 2.07 1.91 1.69 1.58 1.52 1.30 1.24 1.25 1.20 1.24 1.33